Regional Weather Roundup
Issued by NWS Portland, ME

Home | Current Version | Previous Version | Text Only | Print | Product List | Glossary On
Versions: 1 2 3 4 5 6 7 8 9 10 11 12 13 14 15 16 17 18 19 20 21 22 23 24 25 26 27 28 29 30 31 32 33 34 35 36 37 38 39 40 41 42 43 44 45 46 47 48 49 50
029
ASUS41 KGYX 132110
RWRGYX
WEATHER ROUNDUP FOR MAINE AND NEW HAMPSHIRE
NATIONAL WEATHER SERVICE GRAY ME
400 PM EST SAT FEB 13 2016

MEZ002-005-006-010-012-015-018-020-021-024-026-027-029-132200-
MAINE

CITY           SKY/WX    TMP DP  RH WIND       PRES   REMARKS
PORTLAND       PTSUNNY   15  -6  39 W17G25    29.85R WCI  -1
SANFORD        SUNNY     10  -9  40 W18G30    29.88R WCI  -8
BAR HARBOR     CLOUDY    16  10  79 NW8       29.77R
WISCASSET      PTCLDY    18  -5  36 N8G20     29.83R
ROCKLAND       FLURRIES  16   9  74 MISG      29.79R
FRYEBURG       CLOUDY     8 -17  31 W12G32    29.87R WCI  -7
LEWISTONAUBURN CLOUDY    12 -11  34 NW20      29.82R WCI  -6
AUGUSTA        CLOUDY    13  -7  40 NW7       29.82R
WATERVILLE     CLOUDY    12  -1  56 NW14      29.79R WCI  -3
BANGOR         LGT SNOW  12   7  80 NW22G31   29.80R VSB 1   WCI  -7
GREENVILLE       N/A      2  -6  69 NW9G22    29.70R
MILLINOCKET    LGT SNOW  14   3  61 W14G21    29.78R WCI  -1
HOULTON        CLOUDY    13   2  61 N7        29.74R
PRESQUE ISLE   CLOUDY    11   4  73 N5        29.76S
FRENCHVILLE    LGT SNOW   8   1  73 N5        29.72R
CARIBOU        CLOUDY    10   3  73 NW5       29.74R HAZE
$$

NHZ002-005-008-009-011-012-014-132200-
NEW HAMPSHIRE

CITY           SKY/WX    TMP DP  RH WIND       PRES   REMARKS
PORTSMOUTH     MOSUNNY   13  -2  51 NW16G28   29.88R WCI  -4
ROCHESTER      MOSUNNY   11 -10  38 NW16G23   29.87R WCI  -6
NASHUA         CLOUDY    12  -9  37 W23       29.93R WCI  -7
MANCHESTER     MOSUNNY   13 -13  30 NW18G31   29.91R WCI  -4
CONCORD        CLOUDY    10  -8  44 NW24G30   29.93R WCI -10
LACONIA        MOSUNNY    7 -17  33 W16G24    29.93R WCI -11
PLYMOUTH       FAIR       3 -17  38 W13G23    29.96R WCI -14
BERLIN         PTSUNNY    0 -16  46 NW12G20   29.87R WCI -17
WHITEFIELD     MOSUNNY   -1 -17  46 W15G22    29.92R WCI -21
JAFFREY        PTSUNNY    4 -15  41 W17G29    29.88R WCI -16
KEENE          PTSUNNY    7 -17  33 W13G23    29.98R WCI  -9
LEBANON        CLOUDY     4 -10  52 NW17G28   29.98R HAZE    WCI -16
MT WASHINGTON  DRFTSNOW -24 -24 100 W33G44      N/A  VSB 1/16WCI -60
$$

VTZ005-007-008-132200-
VERMONT

CITY           SKY/WX    TMP DP  RH WIND       PRES   REMARKS
ST JOHNSBURY     N/A     -4 -23  39 MISG      30.02R
MONTPELIER     PTSUNNY   -9 -22  53 NW21G32   30.02R HAZE    WCI -34
BURLINGTON     PTSUNNY   -6 -21  48 NW18G26   30.17R WCI -29
$$

MAZ007-012-024-CTZ003-RIZ002-NYZ038-NYZ072-132200-
SOUTHERN NEW ENGLAND AND NY

CITY           SKY/WX    TMP DP  RH WIND       PRES   REMARKS
BOSTON         MOSUNNY   16 -10  31 W24G36    29.91R WCI  -2
WORCESTER      SUNNY      5 -15  39 W24G35    29.90R WCI -17
NANTUCKET      PTSUNNY   23   2  40 NW20G30   29.87R WCI   8
PROVIDENCE     MOSUNNY   14 -14  27 NW22G33   29.98R WCI  -4
HARTFORD       MOSUNNY    7 -12  41 NW20G31   30.08R WCI -13
ALBANY         PTSUNNY    1 -16  44 NW24G40   30.18R WCI -22
NEW YORK CITY  MOSUNNY   17  -4  39 NW32G41   30.15R WCI  -3
$$

ANZ081-ANZ082-ANZ150-NHZ014-MEZ023>029-132200-
COASTAL MARINE OBSERVATIONS

STATION/POSITION TIME  TEMP    WIND        PRES    WAVE
                       AIR SEA DIR/SP/G            HT/PER
                 (UTC) (F)     (DEG/KT/KT) (MB)    (FT/S)
MOUNT DESERT ROC 2100   20     320/ 28/ 32 1005.9R
MATINICUS ROCK   2100          330/ 26/ 28 1007.9R
ISLE OF SHOALS   2100   16     320/ 29/ 38 1010.6R
JEFFREYS LEDGE   2004      43                N/A     6/ 5
CASHES LEDGE BUO 2050   24 42  320/ 19/ 23 1007.1R   7/ 6
GEORGES BANK BUO 2050   33 43              1003.7R   8/ 6
$$

.............KEY..............
   WCI - WIND CHILL
   TC  - TEMPERATURE IN CELSIUS
   VSB - VISIBILITY IN MILES
   HX  - HEAT INDEX
   FAIR- INDICATES FEW OR NO CLOUDS BELOW 12,000 FT, WITH NO
         SIGNIFICANT WEATHER AND/OR OBSTRUCTIONS TO VISIBILITY.






USA.gov is the U.S. government's official web portal to all federal, state and local government web resources and services.